| time (UTC) | temp F | wind direction | speed knots | gust knots | rain 1hr in | rain 24hr in | rain mn in | humidity % | barometer mb |
| 20260506025351 | 70 | 186 | 0.9 | 0.9 | 0.00 | 0.00 | 0.00 | 75 | 1006.4 |
| 20260506024848 | 70 | 126 | 0.9 | 1.7 | 0.00 | 0.00 | 0.00 | 75 | 1006.5 |
| 20260506024344 | 70 | 186 | 1.7 | 4.3 | 0.00 | 0.00 | 0.00 | 75 | 1006.1 |
| 20260506023840 | 71 | 144 | 0.0 | 0.0 | 0.00 | 0.00 | 0.00 | 75 | 1006.3 |
| 20260506023338 | 71 | 187 | 1.7 | 1.7 | 0.00 | 0.00 | 0.00 | 74 | 1006.0 |
| 20260506022834 | 71 | 80 | 0.9 | 1.7 | 0.00 | 0.00 | 0.00 | 74 | 1005.5 |
| 20260506022332 | 71 | 189 | 0.0 | 0.0 | 0.00 | 0.00 | 0.00 | 73 | 1005.6 |
| 20260506021830 | 71 | 197 | 0.0 | 0.0 | 0.00 | 0.00 | 0.00 | 73 | 1005.6 |
| 20260506021327 | 71 | 195 | 0.0 | 0.9 | 0.00 | 0.00 | 0.00 | 73 | 1005.5 |
| 20260506020823 | 71 | 203 | 1.7 | 1.7 | 0.00 | 0.00 | 0.00 | 73 | 1005.6 |
| 20260506020321 | 71 | 223 | 0.9 | 0.9 | 0.00 | 0.00 | 0.00 | 72 | 1005.0 |
| 20260506015818 | 72 | 197 | 0.0 | 0.0 | 0.00 | 0.00 | 0.00 | 73 | 1004.9 |
| 20260506015316 | 72 | 188 | 0.9 | 0.9 | 0.00 | 0.00 | 0.00 | 72 | 1004.5 |
| 20260506014812 | 72 | 185 | 0.9 | 1.7 | 0.00 | 0.00 | 0.00 | 72 | 1004.7 |
| 20260506014309 | 72 | 190 | 0.0 | 0.0 | 0.00 | 0.00 | 0.00 | 72 | 1004.9 |
| 20260506013806 | 73 | 166 | 0.0 | 0.9 | 0.00 | 0.00 | 0.00 | 72 | 1004.7 |
| 20260506013303 | 73 | 200 | 0.0 | 0.9 | 0.00 | 0.00 | 0.00 | 72 | 1004.5 |
| 20260506012800 | 73 | 198 | 1.7 | 2.6 | 0.00 | 0.00 | 0.00 | 71 | 1004.4 |
| 20260506012256 | 73 | 175 | 0.9 | 0.9 | 0.00 | 0.00 | 0.00 | 70 | 1004.7 |
| 20260506011753 | 73 | 176 | 0.0 | 0.0 | 0.00 | 0.00 | 0.00 | 70 | 1004.3 |
| 20260506011249 | 73 | 189 | 0.0 | 0.9 | 0.00 | 0.00 | 0.00 | 70 | 1004.3 |
| 20260506010748 | 74 | 186 | 0.0 | 0.0 | 0.00 | 0.00 | 0.00 | 70 | 1004.7 |
| 20260506010245 | 74 | 216 | 1.7 | 2.6 | 0.00 | 0.00 | 0.00 | 70 | 1004.6 |
| 20260506005743 | 74 | 193 | 0.0 | 0.0 | 0.00 | 0.00 | 0.00 | 70 | 1004.5 |
| 20260506005239 | 75 | 237 | 1.7 | 2.6 | 0.00 | 0.00 | 0.00 | 70 | 1004.3 |
| 20260506004735 | 75 | 205 | 0.0 | 0.9 | 0.00 | 0.00 | 0.00 | 69 | 1004.0 |
| 20260506004233 | 75 | 156 | 0.0 | 0.9 | 0.00 | 0.00 | 0.00 | 68 | 1003.9 |
| 20260506003729 | 75 | 61 | 0.9 | 1.7 | 0.00 | 0.00 | 0.00 | 67 | 1004.1 |
| 20260506003226 | 75 | 196 | 0.0 | 0.9 | 0.00 | 0.00 | 0.00 | 67 | 1003.9 |
| 20260506002721 | 76 | 211 | 1.7 | 2.6 | 0.00 | 0.00 | 0.00 | 67 | 1003.7 |
| 20260506002218 | 77 | 226 | 0.9 | 1.7 | 0.00 | 0.00 | 0.00 | 68 | 1003.4 |
| 20260506001714 | 77 | 279 | 0.9 | 1.7 | 0.00 | 0.00 | 0.00 | 67 | 1003.7 |
| 20260506001211 | 78 | 191 | 0.0 | 0.9 | 0.00 | 0.00 | 0.00 | 67 | 1003.5 |
| 20260506000708 | 78 | 193 | 1.7 | 2.6 | 0.00 | 0.00 | 0.00 | 66 | 1003.5 |
| 20260506000206 | 79 | 44 | 2.6 | 6.1 | 0.00 | 0.00 | 0.00 | 65 | 1003.2 |
| 20260505235703 | 80 | 188 | 1.7 | 2.6 | 0.00 | 0.00 | 0.00 | 65 | 1003.0 |
| 20260505235201 | 80 | 6 | 1.7 | 4.3 | 0.00 | 0.00 | 0.00 | 65 | 1002.9 |
| 20260505234657 | 80 | 105 | 0.9 | 0.9 | 0.00 | 0.00 | 0.00 | 65 | 1003.0 |
| 20260505234155 | 82 | 192 | 0.0 | 0.9 | 0.00 | 0.00 | 0.00 | 64 | 1002.8 |
| 20260505233651 | 82 | 182 | 0.0 | 0.9 | 0.00 | 0.00 | 0.00 | 63 | 1002.7 |
| 20260505233149 | 84 | 187 | 0.9 | 1.7 | 0.00 | 0.00 | 0.00 | 61 | 1002.7 |
| 20260505232646 | 85 | 185 | 1.7 | 2.6 | 0.00 | 0.00 | 0.00 | 57 | 1002.8 |
| 20260505232144 | 85 | 183 | 1.7 | 2.6 | 0.00 | 0.00 | 0.00 | 56 | 1002.5 |
| 20260505231640 | 86 | 198 | 0.9 | 1.7 | 0.00 | 0.00 | 0.00 | 55 | 1002.4 |
| 20260505231139 | 87 | 203 | 0.9 | 1.7 | 0.00 | 0.00 | 0.00 | 54 | 1002.5 |
| 20260505230636 | 87 | 197 | 0.9 | 0.9 | 0.00 | 0.00 | 0.00 | 53 | 1002.5 |
| 20260505230132 | 87 | 13 | 0.9 | 0.9 | 0.00 | 0.00 | 0.00 | 52 | 1002.4 |
| 20260505225629 | 88 | 207 | 0.0 | 0.0 | 0.00 | 0.00 | 0.00 | 51 | 1002.3 |
| 20260505225125 | 88 | 178 | 0.0 | 0.0 | 0.00 | 0.00 | 0.00 | 51 | 1002.0 |
| 20260505224622 | 88 | 190 | 0.9 | 1.7 | 0.00 | 0.00 | 0.00 | 50 | 1002.0 |
| 20260505224119 | 88 | 88 | 0.9 | 1.7 | 0.00 | 0.00 | 0.00 | 49 | 1001.9 |
| 20260505223616 | 89 | 187 | 1.7 | 2.6 | 0.00 | 0.00 | 0.00 | 49 | 1001.8 |
| 20260505223113 | 89 | 201 | 0.9 | 1.7 | 0.00 | 0.00 | 0.00 | 49 | 1001.9 |
| 20260505222609 | 91 | 75 | 1.7 | 2.6 | 0.00 | 0.00 | 0.00 | 48 | 1001.6 |
| 20260505222105 | 92 | 207 | 0.9 | 2.6 | 0.00 | 0.00 | 0.00 | 49 | 1001.4 |
| 20260505221602 | 93 | 221 | 2.6 | 4.3 | 0.00 | 0.00 | 0.00 | 48 | 1001.3 |
| 20260505221058 | 92 | 195 | 1.7 | 2.6 | 0.00 | 0.00 | 0.00 | 48 | 1001.1 |
| 20260505220556 | 92 | 204 | 0.0 | 0.9 | 0.00 | 0.00 | 0.00 | 50 | 1001.4 |
| 20260505220054 | 94 | 183 | 0.9 | 0.9 | 0.00 | 0.00 | 0.00 | 48 | 1001.4 |
| 20260505215552 | 93 | 201 | 0.0 | 0.9 | 0.00 | 0.00 | 0.00 | 49 | 1001.4 |
| 20260505215049 | 92 | 212 | 2.6 | 5.2 | 0.00 | 0.00 | 0.00 | 49 | 1001.5 |
| 20260505214547 | 93 | 193 | 0.9 | 0.9 | 0.00 | 0.00 | 0.00 | 48 | 1001.4 |
| 20260505214044 | 93 | 202 | 0.9 | 1.7 | 0.00 | 0.00 | 0.00 | 49 | 1001.7 |
| 20260505213542 | 93 | 244 | 2.6 | 5.2 | 0.00 | 0.00 | 0.00 | 49 | 1001.4 |
| 20260505213037 | 93 | 187 | 0.9 | 1.7 | 0.00 | 0.00 | 0.00 | 52 | 1001.5 |
| 20260505212534 | 93 | 189 | 0.0 | 0.9 | 0.00 | 0.00 | 0.00 | 50 | 1001.7 |
| 20260505212031 | 92 | 148 | 2.6 | 5.2 | 0.00 | 0.00 | 0.00 | 53 | 1001.5 |
| 20260505211529 | 92 | 189 | 1.7 | 1.7 | 0.00 | 0.00 | 0.00 | 53 | 1001.8 |
| 20260505211025 | 93 | 183 | 2.6 | 4.3 | 0.00 | 0.00 | 0.00 | 52 | 1001.8 |
| 20260505210522 | 92 | 208 | 2.6 | 5.2 | 0.00 | 0.00 | 0.00 | 52 | 1002.0 |
| 20260505210019 | 91 | 189 | 1.7 | 2.6 | 0.00 | 0.00 | 0.00 | 54 | 1001.9 |
| 20260505205517 | 92 | 208 | 3.5 | 6.1 | 0.00 | 0.00 | 0.00 | 53 | 1001.8 |
| 20260505205014 | 91 | 199 | 1.7 | 2.6 | 0.00 | 0.00 | 0.00 | 56 | 1001.9 |
| 20260505204512 | 91 | 230 | 0.0 | 0.9 | 0.00 | 0.00 | 0.00 | 55 | 1002.0 |
| 20260505204009 | 91 | 209 | 1.7 | 4.3 | 0.00 | 0.00 | 0.00 | 56 | 1002.3 |
| 20260505203505 | 90 | 199 | 0.9 | 1.7 | 0.00 | 0.00 | 0.00 | 57 | 1002.4 |
| 20260505203001 | 89 | 106 | 1.7 | 2.6 | 0.00 | 0.00 | 0.00 | 59 | 1002.5 |
| 20260505202458 | 90 | 173 | 4.3 | 6.1 | 0.00 | 0.00 | 0.00 | 58 | 1002.6 |
| 20260505201954 | 89 | 217 | 0.9 | 1.7 | 0.00 | 0.00 | 0.00 | 60 | 1002.6 |
| 20260505201451 | 88 | 199 | 2.6 | 4.3 | 0.00 | 0.00 | 0.00 | 59 | 1002.6 |
| 20260505200949 | 88 | 189 | 0.9 | 1.7 | 0.00 | 0.00 | 0.00 | 60 | 1002.6 |
| 20260505200447 | 89 | 219 | 2.6 | 2.6 | 0.00 | 0.00 | 0.00 | 58 | 1002.8 |
| 20260505195942 | 89 | 233 | 1.7 | 4.3 | 0.00 | 0.00 | 0.00 | 59 | 1002.6 |
| 20260505195439 | 88 | 187 | 5.2 | 6.1 | 0.00 | 0.00 | 0.00 | 59 | 1002.6 |
| 20260505194937 | 89 | 209 | 2.6 | 5.2 | 0.00 | 0.00 | 0.00 | 61 | 1002.8 |
| 20260505194434 | 88 | 164 | 3.5 | 7.0 | 0.00 | 0.00 | 0.00 | 60 | 1002.7 |
| 20260505193934 | 88 | 128 | 1.7 | 1.7 | 0.00 | 0.00 | 0.00 | 60 | 1002.8 |
| 20260505193432 | 88 | 153 | 3.5 | 5.2 | 0.00 | 0.00 | 0.00 | 61 | 1002.8 |
| 20260505192929 | 88 | 183 | 3.5 | 6.1 | 0.00 | 0.00 | 0.00 | 61 | 1002.6 |
| 20260505192427 | 88 | 139 | 4.3 | 6.1 | 0.00 | 0.00 | 0.00 | 61 | 1002.6 |
| 20260505191925 | 88 | 214 | 3.5 | 6.1 | 0.00 | 0.00 | 0.00 | 60 | 1002.8 |
| 20260505191423 | 87 | 267 | 6.1 | 8.7 | 0.00 | 0.00 | 0.00 | 61 | 1002.7 |
| 20260505190920 | 87 | 276 | 3.5 | 6.1 | 0.00 | 0.00 | 0.00 | 62 | 1002.7 |
| 20260505190415 | 86 | 210 | 1.7 | 1.7 | 0.00 | 0.00 | 0.00 | 62 | 1002.8 |
| 20260505185910 | 85 | 192 | 0.9 | 1.7 | 0.00 | 0.00 | 0.00 | 64 | 1002.9 |
| 20260505185408 | 86 | 115 | 1.7 | 4.3 | 0.00 | 0.00 | 0.00 | 64 | 1002.7 |
| 20260505184904 | 86 | 255 | 4.3 | 5.2 | 0.00 | 0.00 | 0.00 | 64 | 1002.9 |
| 20260505184401 | 86 | 207 | 2.6 | 2.6 | 0.00 | 0.00 | 0.00 | 64 | 1003.2 |
| 20260505183858 | 85 | 232 | 2.6 | 6.1 | 0.00 | 0.00 | 0.00 | 65 | 1003.0 |
| 20260505183355 | 85 | 224 | 2.6 | 5.2 | 0.00 | 0.00 | 0.00 | 65 | 1003.1 |
| 20260505182851 | 85 | 228 | 3.5 | 6.1 | 0.00 | 0.00 | 0.00 | 66 | 1003.1 |
| 20260505182348 | 85 | 234 | 3.5 | 6.1 | 0.00 | 0.00 | 0.00 | 65 | 1003.2 |
| 20260505181845 | 85 | 239 | 4.3 | 5.2 | 0.00 | 0.00 | 0.00 | 65 | 1003.3 |
| 20260505181342 | 84 | 220 | 1.7 | 2.6 | 0.00 | 0.00 | 0.00 | 65 | 1003.2 |
| 20260505180839 | 84 | 207 | 4.3 | 6.1 | 0.00 | 0.00 | 0.00 | 64 | 1003.2 |
| 20260505180335 | 84 | 207 | 1.7 | 4.3 | 0.00 | 0.00 | 0.00 | 66 | 1003.1 |
| 20260505175832 | 84 | 257 | 3.5 | 4.3 | 0.00 | 0.00 | 0.00 | 67 | 1003.2 |
| 20260505175328 | 84 | 206 | 4.3 | 6.1 | 0.00 | 0.00 | 0.00 | 66 | 1003.1 |
| 20260505174825 | 84 | 204 | 6.1 | 11.3 | 0.00 | 0.00 | 0.00 | 65 | 1003.0 |
| 20260505174322 | 84 | 214 | 3.5 | 5.2 | 0.00 | 0.00 | 0.00 | 65 | 1003.2 |
| 20260505173818 | 84 | 277 | 5.2 | 8.7 | 0.00 | 0.00 | 0.00 | 67 | 1003.3 |
| 20260505173315 | 84 | 217 | 3.5 | 5.2 | 0.00 | 0.00 | 0.00 | 68 | 1003.2 |
| 20260505172812 | 84 | 202 | 3.5 | 6.1 | 0.00 | 0.00 | 0.00 | 68 | 1003.3 |
| 20260505172309 | 84 | 191 | 3.5 | 7.0 | 0.00 | 0.00 | 0.00 | 68 | 1003.5 |
| 20260505171804 | 84 | 212 | 7.0 | 9.6 | 0.00 | 0.00 | 0.00 | 68 | 1003.2 |
| 20260505171301 | 84 | 153 | 4.3 | 6.1 | 0.00 | 0.00 | 0.00 | 67 | 1003.2 |
| 20260505170757 | 83 | 208 | 4.3 | 6.1 | 0.00 | 0.00 | 0.00 | 69 | 1003.2 |
| 20260505170255 | 83 | 199 | 4.3 | 7.8 | 0.00 | 0.00 | 0.00 | 69 | 1003.3 |
| 20260505165750 | 82 | 133 | 7.0 | 13.0 | 0.00 | 0.00 | 0.00 | 70 | 1003.1 |
| 20260505165246 | 82 | 119 | 3.5 | 5.2 | 0.00 | 0.00 | 0.00 | 70 | 1003.3 |
| 20260505164742 | 82 | 257 | 4.3 | 5.2 | 0.00 | 0.00 | 0.00 | 71 | 1003.4 |
| 20260505164239 | 82 | 164 | 4.3 | 7.0 | 0.00 | 0.00 | 0.00 | 71 | 1003.3 |
| 20260505163737 | 82 | 241 | 2.6 | 4.3 | 0.00 | 0.00 | 0.00 | 71 | 1003.3 |
| 20260505163236 | 81 | 260 | 4.3 | 7.0 | 0.00 | 0.00 | 0.00 | 72 | 1003.1 |
| 20260505162732 | 81 | 61 | 2.6 | 6.1 | 0.00 | 0.00 | 0.00 | 72 | 1003.3 |
| 20260505162229 | 82 | 109 | 2.6 | 4.3 | 0.00 | 0.00 | 0.00 | 73 | 1003.3 |
| 20260505161726 | 81 | 108 | 0.9 | 2.6 | 0.00 | 0.00 | 0.00 | 73 | 1003.2 |
| 20260505161224 | 80 | 138 | 3.5 | 5.2 | 0.00 | 0.00 | 0.00 | 74 | 1003.2 |
| 20260505160721 | 80 | 170 | 4.3 | 7.8 | 0.00 | 0.00 | 0.00 | 74 | 1002.9 |
| 20260505160219 | 80 | 149 | 2.6 | 4.3 | 0.00 | 0.00 | 0.00 | 75 | 1003.3 |
| 20260505153158 | 79 | 140 | 4.3 | 6.1 | 0.00 | 0.00 | 0.00 | 76 | 1003.0 |
| 20260505152655 | 78 | 169 | 1.7 | 4.3 | 0.00 | 0.00 | 0.00 | 77 | 1002.9 |
| 20260505152150 | 78 | 173 | 3.5 | 6.1 | 0.00 | 0.00 | 0.00 | 77 | 1003.1 |
| 20260505151646 | 78 | 141 | 2.6 | 2.6 | 0.00 | 0.00 | 0.00 | 78 | 1003.0 |
| 20260505151143 | 77 | 216 | 6.1 | 7.8 | 0.00 | 0.00 | 0.00 | 78 | 1003.1 |
| 20260505150639 | 77 | 214 | 0.9 | 1.7 | 0.00 | 0.00 | 0.00 | 79 | 1003.2 |
| 20260505150136 | 77 | 103 | 5.2 | 7.8 | 0.00 | 0.00 | 0.00 | 80 | 1003.2 |
| 20260505140605 | 74 | 188 | 1.7 | 2.6 | 0.00 | 0.00 | 0.00 | 84 | 1002.8 |
| 20260505125019 | 71 | 166 | 4.3 | 7.0 | 0.00 | 0.00 | 0.00 | 87 | 1002.6 |
| 20260505124515 | 71 | 163 | 5.2 | 7.0 | 0.00 | 0.00 | 0.00 | 88 | 1002.6 |
| 20260505124012 | 71 | 358 | 1.7 | 2.6 | 0.00 | 0.00 | 0.00 | 88 | 1002.5 |
| 20260505123508 | 71 | 160 | 2.6 | 2.6 | 0.00 | 0.00 | 0.00 | 88 | 1002.5 |
| 20260505123004 | 71 | 162 | 5.2 | 7.8 | 0.00 | 0.00 | 0.00 | 88 | 1002.7 |
| 20260505122502 | 71 | 212 | 2.6 | 4.3 | 0.00 | 0.00 | 0.00 | 88 | 1002.6 |
| 20260505121958 | 71 | 167 | 0.9 | 0.9 | 0.00 | 0.00 | 0.00 | 88 | 1002.2 |
| 20260505121455 | 71 | 191 | 1.7 | 1.7 | 0.00 | 0.00 | 0.00 | 88 | 1002.2 |
| 20260505120951 | 71 | 212 | 2.6 | 2.6 | 0.00 | 0.00 | 0.00 | 88 | 1001.9 |
| 20260505120448 | 71 | 140 | 4.3 | 5.2 | 0.00 | 0.00 | 0.00 | 88 | 1002.0 |
| 20260505115947 | 71 | 199 | 1.7 | 2.6 | 0.00 | 0.00 | 0.00 | 88 | 1002.3 |
| 20260505115443 | 71 | 184 | 2.6 | 4.3 | 0.00 | 0.00 | 0.00 | 88 | 1002.4 |
| 20260505114941 | 71 | 187 | 2.6 | 4.3 | 0.00 | 0.00 | 0.00 | 88 | 1002.0 |
| 20260505114437 | 71 | 193 | 2.6 | 2.6 | 0.00 | 0.00 | 0.00 | 88 | 1002.2 |
| 20260505113934 | 71 | 204 | 2.6 | 2.6 | 0.00 | 0.00 | 0.00 | 88 | 1001.9 |
| 20260505113430 | 71 | 103 | 0.9 | 1.7 | 0.00 | 0.00 | 0.00 | 88 | 1002.0 |
| 20260505112926 | 71 | 204 | 2.6 | 8.7 | 0.00 | 0.00 | 0.00 | 87 | 1002.2 |
| 20260505112424 | 71 | 197 | 0.9 | 0.9 | 0.00 | 0.00 | 0.00 | 87 | 1002.2 |
| 20260505111920 | 71 | 203 | 2.6 | 2.6 | 0.00 | 0.00 | 0.00 | 87 | 1001.9 |
| 20260505111415 | 71 | 72 | 2.6 | 5.2 | 0.00 | 0.00 | 0.00 | 87 | 1001.9 |
| 20260505110912 | 71 | 172 | 1.7 | 2.6 | 0.00 | 0.00 | 0.00 | 87 | 1001.7 |
| 20260505110409 | 71 | 237 | 1.7 | 2.6 | 0.00 | 0.00 | 0.00 | 87 | 1001.8 |
| 20260505101839 | 71 | 157 | 4.3 | 5.2 | 0.00 | 0.00 | 0.00 | 87 | 1001.8 |
| 20260505101334 | 71 | 149 | 2.6 | 2.6 | 0.00 | 0.00 | 0.00 | 87 | 1002.0 |
| 20260505100830 | 71 | 58 | 2.6 | 4.3 | 0.00 | 0.00 | 0.00 | 87 | 1001.7 |
| 20260505100327 | 71 | 194 | 1.7 | 2.6 | 0.00 | 0.00 | 0.00 | 87 | 1001.8 |
| 20260505095822 | 71 | 197 | 3.5 | 5.2 | 0.00 | 0.00 | 0.00 | 86 | 1002.0 |
| 20260505095320 | 72 | 207 | 4.3 | 7.0 | 0.00 | 0.00 | 0.00 | 86 | 1002.2 |
| 20260505094816 | 72 | 0 | 2.6 | 2.6 | 0.00 | 0.00 | 0.00 | 86 | 1001.9 |
| 20260505094313 | 72 | 188 | 4.3 | 5.2 | 0.00 | 0.00 | 0.00 | 86 | 1001.9 |
| 20260505093808 | 72 | 192 | 2.6 | 4.3 | 0.00 | 0.00 | 0.00 | 86 | 1002.0 |
| 20260505093307 | 72 | 132 | 3.5 | 5.2 | 0.00 | 0.00 | 0.00 | 86 | 1001.9 |
| 20260505092803 | 72 | 213 | 2.6 | 6.1 | 0.00 | 0.00 | 0.00 | 85 | 1001.9 |
| 20260505092304 | 72 | 197 | 1.7 | 4.3 | 0.00 | 0.00 | 0.00 | 85 | 1002.3 |
| 20260505091758 | 72 | 86 | 5.2 | 8.7 | 0.00 | 0.00 | 0.00 | 85 | 1002.2 |
| 20260505091256 | 72 | 175 | 2.6 | 6.1 | 0.00 | 0.00 | 0.00 | 85 | 1002.5 |
| 20260505090754 | 72 | 277 | 4.3 | 6.1 | 0.00 | 0.00 | 0.00 | 85 | 1002.0 |
| 20260505090252 | 72 | 131 | 2.6 | 4.3 | 0.00 | 0.00 | 0.00 | 85 | 1002.6 |
| 20260505085749 | 72 | 142 | 3.5 | 5.2 | 0.00 | 0.00 | 0.00 | 85 | 1002.7 |
| 20260505085247 | 72 | 213 | 7.0 | 8.7 | 0.00 | 0.00 | 0.00 | 85 | 1002.5 |
| 20260505084744 | 72 | 126 | 6.1 | 9.6 | 0.00 | 0.00 | 0.00 | 85 | 1002.4 |
| 20260505084243 | 72 | 238 | 2.6 | 2.6 | 0.00 | 0.00 | 0.00 | 85 | 1002.4 |
| 20260505083739 | 72 | 214 | 4.3 | 6.1 | 0.00 | 0.00 | 0.00 | 85 | 1002.4 |
| 20260505083236 | 72 | 158 | 1.7 | 2.6 | 0.00 | 0.00 | 0.00 | 84 | 1002.6 |
| 20260505082732 | 72 | 154 | 3.5 | 4.3 | 0.00 | 0.00 | 0.00 | 84 | 1002.5 |
| 20260505082230 | 72 | 113 | 2.6 | 2.6 | 0.00 | 0.00 | 0.00 | 84 | 1002.6 |
| 20260505081725 | 72 | 237 | 1.7 | 2.6 | 0.00 | 0.00 | 0.00 | 84 | 1002.5 |
| 20260505081223 | 72 | 208 | 3.5 | 5.2 | 0.00 | 0.00 | 0.00 | 84 | 1002.4 |
| 20260505080720 | 72 | 152 | 3.5 | 5.2 | 0.00 | 0.00 | 0.00 | 84 | 1002.6 |
| 20260505080215 | 73 | 196 | 1.7 | 1.7 | 0.00 | 0.00 | 0.00 | 83 | 1002.8 |
| 20260505075711 | 73 | 93 | 4.3 | 5.2 | 0.00 | 0.00 | 0.00 | 83 | 1002.5 |
| 20260505075209 | 73 | 104 | 4.3 | 6.1 | 0.00 | 0.00 | 0.00 | 83 | 1002.6 |
| 20260505074706 | 73 | 159 | 4.3 | 7.0 | 0.00 | 0.00 | 0.00 | 83 | 1002.7 |
| 20260505074202 | 73 | 313 | 2.6 | 2.6 | 0.00 | 0.00 | 0.00 | 82 | 1002.7 |
| 20260505073700 | 73 | 64 | 3.5 | 5.2 | 0.00 | 0.00 | 0.00 | 82 | 1002.9 |
| 20260505073158 | 73 | 209 | 4.3 | 7.0 | 0.00 | 0.00 | 0.00 | 82 | 1003.0 |
| 20260505072653 | 73 | 203 | 2.6 | 4.3 | 0.00 | 0.00 | 0.00 | 81 | 1003.2 |
| 20260505072150 | 73 | 186 | 2.6 | 2.6 | 0.00 | 0.00 | 0.00 | 81 | 1003.4 |
| 20260505071646 | 73 | 192 | 0.9 | 1.7 | 0.00 | 0.00 | 0.00 | 81 | 1003.3 |
| 20260505071144 | 73 | 127 | 2.6 | 4.3 | 0.00 | 0.00 | 0.00 | 81 | 1003.5 |
| 20260505070641 | 74 | 114 | 2.6 | 5.2 | 0.00 | 0.00 | 0.00 | 80 | 1003.6 |
| 20260505070137 | 74 | 161 | 3.5 | 5.2 | 0.00 | 0.00 | 0.00 | 80 | 1003.5 |
| 20260505065633 | 74 | 68 | 4.3 | 8.7 | 0.00 | 0.00 | 0.00 | 79 | 1003.7 |
| 20260505065130 | 74 | 297 | 2.6 | 5.2 | 0.00 | 0.00 | 0.00 | 79 | 1003.6 |
| 20260505064627 | 74 | 259 | 2.6 | 4.3 | 0.00 | 0.00 | 0.00 | 78 | 1003.9 |
| 20260505064125 | 74 | 226 | 3.5 | 6.1 | 0.00 | 0.00 | 0.00 | 78 | 1003.5 |
| 20260505063622 | 74 | 168 | 4.3 | 5.2 | 0.00 | 0.00 | 0.00 | 78 | 1003.7 |
| 20260505063118 | 75 | 210 | 8.7 | 11.3 | 0.00 | 0.00 | 0.00 | 77 | 1003.9 |
| 20260505062614 | 75 | 189 | 1.7 | 2.6 | 0.00 | 0.00 | 0.00 | 77 | 1003.9 |
| 20260505062112 | 75 | 136 | 1.7 | 2.6 | 0.00 | 0.00 | 0.00 | 76 | 1003.8 |
| 20260505061609 | 75 | 223 | 0.9 | 0.9 | 0.00 | 0.00 | 0.00 | 76 | 1003.9 |
| 20260505061107 | 75 | 145 | 1.7 | 2.6 | 0.00 | 0.00 | 0.00 | 76 | 1003.9 |
| 20260505060604 | 75 | 176 | 2.6 | 5.2 | 0.00 | 0.00 | 0.00 | 75 | 1003.9 |
| 20260505060101 | 75 | 285 | 2.6 | 2.6 | 0.00 | 0.00 | 0.00 | 75 | 1003.7 |
| 20260505055556 | 75 | 214 | 4.3 | 6.1 | 0.00 | 0.00 | 0.00 | 74 | 1003.8 |
| 20260505055053 | 75 | 78 | 1.7 | 1.7 | 0.00 | 0.00 | 0.00 | 74 | 1003.7 |
| 20260505054550 | 75 | 192 | 5.2 | 7.0 | 0.00 | 0.00 | 0.00 | 74 | 1003.8 |
| 20260505054049 | 75 | 326 | 3.5 | 6.1 | 0.00 | 0.00 | 0.00 | 74 | 1003.5 |
| 20260505053545 | 76 | 235 | 5.2 | 7.8 | 0.00 | 0.00 | 0.00 | 73 | 1003.8 |
| 20260505053042 | 76 | 168 | 2.6 | 5.2 | 0.00 | 0.00 | 0.00 | 73 | 1003.7 |
| 20260505052539 | 76 | 184 | 4.3 | 5.2 | 0.00 | 0.00 | 0.00 | 73 | 1003.6 |
| 20260505052037 | 75 | 110 | 1.7 | 2.6 | 0.00 | 0.00 | 0.00 | 73 | 1003.7 |
| 20260505051533 | 76 | 219 | 4.3 | 7.0 | 0.00 | 0.00 | 0.00 | 73 | 1003.8 |
| 20260505051031 | 75 | 166 | 1.7 | 1.7 | 0.00 | 0.00 | 0.00 | 73 | 1003.9 |
| 20260505050529 | 75 | 214 | 4.3 | 7.8 | 0.00 | 0.00 | 0.00 | 73 | 1004.0 |
| 20260505041457 | 75 | 223 | 5.2 | 7.0 | 0.00 | 0.00 | 0.00 | 73 | 1004.0 |
| 20260505040954 | 76 | 165 | 2.6 | 4.3 | 0.00 | 0.00 | 0.00 | 73 | 1004.1 |
| 20260505040451 | 76 | 182 | 4.3 | 8.7 | 0.00 | 0.00 | 0.00 | 73 | 1004.2 |
| 20260505035948 | 76 | 205 | 4.3 | 7.8 | 0.00 | 0.00 | 0.00 | 72 | 1004.3 |
| 20260505035444 | 76 | 208 | 4.3 | 6.1 | 0.00 | 0.00 | 0.00 | 72 | 1004.2 |
| 20260505034941 | 76 | 146 | 3.5 | 7.0 | 0.00 | 0.00 | 0.00 | 72 | 1004.3 |
| 20260505034438 | 76 | 215 | 3.5 | 5.2 | 0.00 | 0.00 | 0.00 | 72 | 1004.1 |
| 20260505033935 | 76 | 158 | 4.3 | 6.1 | 0.00 | 0.00 | 0.00 | 72 | 1004.1 |
| 20260505033431 | 76 | 156 | 4.3 | 8.7 | 0.00 | 0.00 | 0.00 | 72 | 1004.0 |
| 20260505032930 | 76 | 121 | 0.9 | 1.7 | 0.00 | 0.00 | 0.00 | 71 | 1004.0 |
| 20260505032427 | 76 | 215 | 3.5 | 5.2 | 0.00 | 0.00 | 0.00 | 71 | 1004.1 |
| 20260505031923 | 76 | 190 | 2.6 | 4.3 | 0.00 | 0.00 | 0.00 | 71 | 1004.3 |
| 20260505031420 | 76 | 132 | 2.6 | 4.3 | 0.00 | 0.00 | 0.00 | 71 | 1004.0 |
| 20260505030917 | 76 | 256 | 4.3 | 7.0 | 0.00 | 0.00 | 0.00 | 71 | 1004.2 |
| 20260505030413 | 76 | 199 | 3.5 | 5.2 | 0.00 | 0.00 | 0.00 | 70 | 1004.5 |
| 20260505025908 | 76 | 201 | 2.6 | 4.3 | 0.00 | 0.00 | 0.00 | 70 | 1004.4 |